Wind_Speed
13 11 11 12 11 11 11 11 11 11 11 12 12 13 13 14 14 15 17 18 17 15 14 15 16 17 18 19 19 18 18 18 18 18 18 18 18 17 17 17 16 15 14 13 12 12 11 11 12 12 13 13 14 14 14 15 16 16 17 17 17 18 18 18 17 16 16 16 16 16 16 16 16 17 17 17 17 18 18 19 19 19 19 19 19
15 14 15 15 14 13 11 10 8 8 9 10 10 12 13 13 14 15 14 14 14 15 16 16 16 17 19 19 20 19 18 18 17 18 18 19 19 19 19 18 17 16 15 14 13 13 13 14 14 15 16 17 17 17 17 17 17 17 18 18 18 18 19 19 19 18 18 17 17 17 17 17 17 17 18 18 18 18 19 19 20 21 22 22 22
17 16 16 16 16 14 12 11 10 10 11 11 10 10 12 13 13 14 14 15 16 18 18 18 18 18 19 20 20 20 19 19 18 18 18 19 20 20 20 20 20 19 18 16 15 15 15 15 16 17 18 19 20 21 21 21 21 20 20 20 21 21 20 20 20 21 20 19 19 18 18 17 18 18 18 18 18 18 18 18 19 20 21 21 22
20 18 16 17 17 17 16 15 14 13 13 12 11 11 13 13 14 14 14 15 17 18 19 19 19 18 17 18 20 20 20 19 19 20 20 20 20 20 21 21 22 22 21 19 19 18 18 18 17 17 19 20 21 22 23 24 23 23 22 22 22 22 22 22 22 22 23 22 22 21 20 19 19 20 20 20 19 19 19 19 19 19 19 19 20
23 21 20 19 18 18 18 17 16 15 14 13 13 13 13 14 14 15 15 16 17 19 19 18 17 16 16 17 18 20 20 20 21 21 21 21 20 20 20 21 23 23 23 22 22 21 21 20 19 19 19 21 22 24 25 25 26 25 25 25 24 24 24 24 24 24 24 24 24 24 23 23 22 22 22 22 22 21 21 20 20 20 20 19 19
26 24 23 21 20 19 19 18 17 17 15 14 13 14 14 15 16 17 17 17 17 18 19 19 20 20 20 19 19 20 22 23 23 23 22 21 20 20 21 22 24 25 25 24 23 23 22 22 23 23 23 23 24 25 26 26 27 27 28 27 27 27 27 27 27 27 27 27 27 27 27 26 26 25 25 24 24 23 23 22 21 20 20 20 20
27 27 25 24 22 22 21 21 20 19 18 17 16 16 17 17 18 18 18 17 18 19 21 23 23 23 22 21 21 21 23 24 25 25 25 24 23 23 23 23 25 27 27 27 25 24 24 25 26 27 27 26 26 26 26 27 27 28 29 30 30 29 30 30 30 30 31 31 31 31 30 30 30 29 28 27 26 25 23 23 23 23 23 24 25
28 28 28 27 26 26 26 26 26 25 25 25 24 22 20 20 19 19 20 21 22 22 23 24 25 23 22 23 24 24 25 25 26 27 27 26 25 24 22 23 25 26 27 28 27 26 26 26 28 30 31 30 29 27 27 28 28 29 29 29 30 30 31 32 32 33 33 34 34 34 34 33 33 32 32 31 29 28 27 26 26 28 28 30 31
32 31 32 32 32 32 31 31 31 31 31 31 30 28 25 23 22 22 23 25 25 24 24 25 24 23 23 24 24 24 23 23 24 26 28 27 26 24 24 26 27 27 28 28 28 28 27 27 29 31 32 33 32 30 30 30 29 30 30 30 31 31 32 33 34 35 36 36 37 37 37 37 37 36 36 35 34 33 33 32 32 32 32 34 36
36 36 37 37 37 37 35 34 34 33 34 34 33 31 29 27 25 25 26 27 26 25 25 24 23 23 26 26 24 23 25 25 25 27 27 28 28 29 30 31 31 32 33 33 32 31 30 28 29 31 33 35 35 34 34 33 32 31 32 33 34 35 36 37 37 38 38 39 40 40 41 41 40 40 40 40 40 39 39 39 39 39 38 38 39
40 40 40 39 39 39 38 38 37 36 36 36 35 34 32 30 29 29 28 28 27 26 26 27 28 28 29 28 25 25 28 29 28 28 29 31 32 34 33 32 32 34 35 36 36 35 35 33 33 34 36 38 39 38 38 37 37 36 36 37 38 40 41 41 40 40 40 40 41 41 42 43 43 43 44 44 44 44 45 45 45 45 45 44 45
42 42 42 42 41 41 40 40 39 38 37 37 37 36 33 31 31 31 31 31 31 29 29 30 31 31 30 31 30 30 31 32 32 34 35 35 34 32 31 31 33 34 34 35 36 37 37 38 38 39 40 41 43 43 43 43 43 42 43 43 44 45 45 46 45 44 44 45 45 45 45 46 46 47 47 47 47 48 49 50 50 51 51 51 52
43 43 43 43 43 43 43 42 41 39 38 38 37 36 34 34 35 34 34 33 33 31 30 29 29 30 31 33 34 34 34 35 35 36 36 34 32 31 32 33 34 35 35 36 37 38 38 39 39 40 41 43 44 45 46 46 46 46 47 47 48 48 49 49 49 48 48 50 51 51 51 51 51 52 52 53 54 54 55 56 57 57 58 59 59
44 44 43 44 44 44 44 42 41 40 40 40 39 39 39 40 40 38 37 37 35 34 34 33 33 33 34 35 36 36 35 35 35 34 33 33 34 35 36 36 35 35 36 37 38 39 39 40 40 41 42 43 44 45 46 46 47 47 48 48 49 50 51 51 50 50 50 52 53 54 55 56 56 57 58 59 60 60 61 61 63 63 64 64 64
44 43 43 43 44 44 43 42 41 42 42 42 42 43 43 43 43 41 40 41 41 40 39 38 37 36 36 36 36 36 35 34 34 34 34 35 36 38 38 38 38 37 37 37 38 39 40 41 42 42 43 43 44 44 45 46 47 47 48 49 49 50 50 50 50 51 52 53 54 54 55 56 57 58 59 60 61 61 61 62 63 63 63 63 64
39 39 42 44 44 44 44 44 43 43 43 44 44 44 43 41 40 40 39 40 41 41 40 39 37 36 36 36 36 36 35 35 35 36 37 38 39 40 41 41 40 39 39 39 39 39 40 41 42 43 43 44 44 45 46 47 47 48 49 50 50 50 51 51 52 52 53 54 54 55 55 56 56 57 58 59 60 60 61 61 62 62 62 62 62
35 36 38 41 42 42 42 42 41 41 42 42 41 40 38 37 37 37 38 39 40 41 41 40 38 37 37 36 36 37 37 37 37 38 40 41 42 43 43 43 42 42 42 42 41 40 40 41 41 42 43 43 44 45 46 47 48 49 50 50 51 51 51 52 53 53 54 54 55 56 56 57 58 59 59 60 61 62 62 63 63 64 63 63 63
44 42 40 40 40 41 39 38 39 40 40 40 40 39 40 41 41 41 42 42 43 43 42 41 39 38 38 38 38 38 39 39 40 41 42 43 44 44 44 44 44 44 44 43 43 42 42 42 42 42 42 43 44 45 46 47 47 48 49 49 50 50 50 51 52 52 53 53 54 55 57 58 58 59 60 61 62 63 63 64 65 65 65 65 64
53 50 46 42 39 38 38 39 40 41 40 40 40 40 41 41 41 41 40 41 41 41 40 39 39 38 39 39 40 40 41 42 42 43 44 45 44 44 44 44 44 45 45 44 44 43 43 43 43 43 43 43 44 45 45 46 46 46 47 47 47 47 48 49 50 51 51 53 54 55 56 57 58 59 60 61 62 63 63 64 65 65 65 65 65
53 52 51 48 42 38 37 38 38 39 39 39 39 38 37 38 39 38 38 39 39 40 40 39 39 40 41 42 42 43 43 44 44 45 46 45 45 45 45 45 46 45 45 44 44 44 44 44 44 44 44 44 45 45 45 45 44 44 44 45 46 46 47 48 48 49 50 51 52 53 54 56 57 58 60 61 62 63 63 64 64 65 65 65 65
54 53 53 54 52 48 44 41 39 39 40 41 40 39 38 38 38 38 39 41 42 42 42 42 42 42 43 44 44 45 45 46 46 46 46 45 46 46 46 47 46 46 45 44 44 43 43 43 44 44 45 45 45 45 44 44 43 43 44 44 45 45 46 47 47 48 49 49 50 51 53 54 55 57 58 59 60 61 62 63 64 64 64 64 64
55 54 54 55 57 57 56 53 50 48 47 46 45 45 45 44 42 41 43 46 48 47 46 45 45 46 46 47 47 48 48 49 48 48 47 47 48 48 48 47 46 45 45 44 43 43 43 43 43 44 44 44 44 44 43 43 43 43 43 43 44 44 45 46 46 47 48 49 49 50 51 52 53 54 55 56 56 57 58 59 60 61 61 62 62
57 56 56 56 57 59 60 60 59 58 56 55 55 54 53 52 51 49 49 50 50 50 50 51 52 53 53 52 52 52 51 50 50 49 49 49 49 48 48 47 46 46 45 44 43 43 42 42 43 43 43 44 43 43 42 42 42 42 42 42 43 44 45 45 46 47 48 49 49 50 51 51 51 51 52 52 52 52 53 54 54 55 56 56 57
59 58 57 57 57 58 59 60 60 60 59 59 60 60 59 59 58 57 57 57 56 56 58 59 58 58 57 56 55 54 53 53 52 52 51 49 48 47 46 46 46 46 45 45 44 43 43 43 43 43 43 42 42 41 41 40 41 41 41 42 43 44 45 46 46 47 47 48 48 49 50 51 51 51 51 51 51 52 53 53 53 54 54 54 54
61 61 59 59 59 58 58 59 59 57 54 52 53 55 56 57 57 58 57 56 55 55 56 58 57 56 56 56 56 56 55 55 54 52 50 48 46 45 45 45 45 45 45 44 44 44 44 43 43 42 42 41 41 40 40 40 40 41 41 42 43 44 44 45 45 46 46 47 47 48 49 50 50 51 51 52 53 54 54 55 55 56 56 56 56
63 63 62 62 62 62 61 61 60 58 55 53 53 54 55 56 57 58 57 54 51 51 54 56 57 56 56 56 55 56 56 55 53 51 49 47 46 45 45 44 45 45 44 44 44 44 43 43 42 41 41 40 40 40 39 40 40 40 41 42 43 43 44 44 44 45 45 46 47 47 48 49 50 51 52 53 54 55 56 56 56 57 58 58 58
67 66 65 65 64 64 64 64 63 62 61 60 61 61 61 60 61 61 60 56 53 53 55 56 56 55 55 54 53 52 52 51 50 49 48 46 45 44 44 44 44 44 44 43 43 42 42 42 41 41 40 39 39 38 38 39 40 41 41 42 42 43 43 43 44 44 45 46 46 47 48 49 51 52 53 54 55 56 57 57 57 57 57 57 57
70 70 69 68 67 66 66 66 65 65 64 64 64 64 64 64 63 62 60 57 54 54 56 56 56 55 55 54 52 51 51 51 51 50 48 46 44 43 43 44 45 44 43 42 41 40 39 39 38 38 37 37 37 37 38 39 40 40 41 41 42 42 42 43 43 44 45 45 46 47 48 49 51 52 53 54 55 55 56 56 55 55 55 55 55
70 69 68 68 68 67 66 66 65 65 65 65 65 64 64 64 63 62 61 59 57 57 57 58 58 58 57 56 56 55 55 54 52 51 48 45 44 43 43 44 44 44 42 41 40 40 38 37 36 35 35 35 36 37 38 39 39 40 40 40 41 41 41 41 42 42 42 43 44 46 48 49 51 52 52 53 53 54 54 54 53 52 52 51 51
68 67 66 66 65 64 64 63 62 61 61 62 63 62 62 62 62 61 60 58 57 57 57 58 58 58 58 58 57 56 55 53 51 49 47 45 43 43 43 43 44 43 42 40 39 39 39 38 37 36 35 36 36 37 37 37 38 38 38 38 38 38 37 37 37 37 39 40 43 45 47 49 50 51 51 52 52 52 52 51 49 47 46 46 45
68 67 67 66 65 64 63 62 59 57 57 58 57 56 55 56 57 57 57 56 55 56 56 57 58 58 57 56 55 54 53 51 49 47 46 44 43 42 42 42 42 42 40 38 38 38 38 37 36 36 36 36 36 36 36 36 36 36 36 35 34 32 31 30 32 34 36 39 42 45 47 49 49 50 50 49 48 47 46 45 42 40 39 38 37
69 67 67 66 66 65 64 63 61 59 58 58 57 55 53 52 50 50 51 50 49 51 53 53 55 56 55 53 52 51 49 48 46 44 43 42 41 41 41 41 40 39 38 36 35 35 35 36 36 36 35 35 35 35 35 34 34 33 31 29 27 25 26 28 31 34 37 40 43 45 47 48 48 47 45 42 40 39 37 36 34 32 31 30 30
65 65 65 65 65 65 64 63 62 61 60 59 59 59 58 57 54 51 50 48 47 49 52 50 50 52 51 49 48 47 45 43 42 40 40 39 39 38 39 39 38 37 35 35 34 33 34 34 34 34 34 33 33 33 32 31 29 27 24 22 21 22 25 29 32 35 38 41 43 45 46 45 41 38 35 33 31 30 29 28 28 27 27 26 26
56 57 58 59 60 62 62 62 61 61 60 59 58 58 59 58 56 55 55 53 50 50 50 48 45 45 46 46 46 45 42 40 38 37 37 37 36 36 36 35 35 34 34 33 33 33 33 33 33 32 32 31 30 29 28 26 23 20 18 17 19 22 26 29 33 36 39 41 44 45 42 37 31 28 27 26 26 25 24 24 23 23 23 23 24
45 47 48 50 51 53 55 56 57 58 57 56 56 56 56 56 55 55 55 54 52 52 51 49 45 42 42 44 44 42 39 38 36 35 34 34 33 33 33 33 33 33 33 32 32 32 32 31 31 30 29 28 27 26 23 20 17 14 15 17 20 22 26 30 34 37 40 42 44 42 35 28 24 23 23 22 22 21 20 20 20 21 22 23 24
38 40 41 41 42 43 46 48 49 50 51 51 51 51 51 52 54 54 53 52 52 52 52 50 46 42 40 40 40 39 37 36 35 33 32 31 31 31 31 31 32 31 31 31 31 31 30 29 28 27 25 25 23 21 18 14 12 13 15 17 19 22 26 30 34 37 39 41 40 35 28 23 22 22 21 19 18 18 18 18 20 21 22 22 23
32 35 38 39 38 38 39 41 42 43 44 44 45 46 47 48 50 51 52 51 51 51 50 48 45 42 39 37 36 36 35 35 34 32 31 30 30 31 31 31 30 30 30 30 30 29 28 26 25 24 23 22 19 16 13 11 11 13 15 17 19 22 25 29 33 36 37 36 33 28 23 21 20 19 18 17 17 17 18 19 20 20 20 20 21
27 29 32 36 36 36 37 38 39 38 38 38 38 39 42 43 46 48 48 48 48 47 44 43 43 42 38 36 35 34 34 33 32 30 30 30 31 31 30 29 29 28 29 28 28 26 25 23 22 22 20 18 16 13 11 11 12 13 15 16 19 22 25 29 33 35 35 32 27 22 19 18 17 16 16 16 17 18 19 19 18 17 18 20 22
27 26 27 29 31 33 33 34 35 35 35 35 35 35 37 39 41 43 44 44 44 42 38 37 39 39 36 34 34 33 32 31 30 30 30 31 30 29 28 27 27 27 27 26 24 23 22 21 20 19 18 16 14 12 12 12 12 13 14 17 20 22 25 28 32 34 35 31 24 19 16 14 14 14 15 16 17 18 18 17 16 16 19 22 23
23 24 23 23 25 27 28 29 31 31 31 32 34 35 35 36 36 37 38 38 38 38 37 37 37 35 33 32 32 30 30 30 29 29 30 29 27 26 25 25 25 24 23 22 21 20 19 19 19 18 17 15 13 13 13 12 11 12 15 17 20 22 24 27 30 33 35 32 24 18 15 13 12 14 15 16 16 16 15 15 16 18 21 23 23
13 16 17 18 20 22 23 24 26 27 29 31 32 32 32 31 30 31 31 31 31 32 33 33 32 30 28 28 29 28 28 29 28 28 28 26 23 23 23 22 22 21 21 20 19 19 19 19 18 17 16 14 14 14 13 11 11 13 15 17 19 22 24 26 28 31 35 35 28 19 15 14 13 13 15 16 16 15 14 15 17 19 21 22 21
6 7 9 13 17 20 21 21 23 25 26 28 29 29 28 27 27 26 25 25 26 27 26 25 26 27 26 25 25 25 25 26 26 24 23 21 21 21 21 20 19 19 19 18 19 19 20 19 18 16 16 15 14 14 12 10 11 13 16 17 19 21 24 25 27 30 33 36 33 24 15 14 14 14 14 15 14 14 14 15 17 18 19 19 19
4 1 3 7 12 16 17 19 21 22 23 24 26 26 25 25 24 24 25 27 28 28 25 23 23 23 23 22 22 22 22 23 22 20 19 19 19 19 17 17 17 17 18 19 20 20 19 18 16 16 16 15 14 13 11 11 12 14 16 17 19 21 23 24 26 28 31 34 35 31 21 14 14 14 14 14 13 13 13 14 15 16 18 18 18
17 10 4 4 7 11 13 15 17 19 21 23 23 21 22 24 25 26 27 28 27 25 23 21 19 19 19 19 20 21 22 21 20 19 19 18 16 14 14 15 16 18 19 20 20 19 17 16 16 16 16 15 14 12 11 12 14 15 16 17 19 21 23 24 25 26 29 31 33 34 29 19 14 13 13 12 12 11 11 12 13 15 17 18 19
25 20 14 9 4 4 6 9 12 15 17 18 19 21 24 25 25 25 24 24 23 22 20 19 19 20 21 21 21 21 20 19 19 18 17 16 15 15 16 17 18 20 20 20 18 17 16 16 16 16 15 14 13 13 12 13 14 15 16 17 18 20 22 23 24 25 27 28 30 32 32 27 18 13 12 12 11 10 10 11 13 15 16 17 18
26 25 22 18 15 13 11 9 6 6 11 16 21 23 24 24 24 22 19 18 18 18 17 19 21 23 23 22 21 20 18 18 18 17 17 17 18 19 19 20 20 20 19 18 16 15 15 16 16 15 14 14 14 13 13 14 15 15 15 17 18 19 21 22 23 23 25 27 28 29 31 30 26 19 13 12 12 11 11 12 13 14 15 17 17
22 23 22 20 18 17 16 16 15 13 14 17 20 21 21 21 19 16 15 16 17 17 18 19 20 21 20 19 19 18 17 17 17 17 18 19 21 22 22 21 21 19 18 16 16 15 15 15 14 13 13 14 15 14 14 15 16 16 16 16 17 18 20 22 22 23 24 25 26 27 28 29 30 27 20 15 13 13 13 14 14 14 14 16 17
18 19 19 19 18 16 15 14 14 15 17 18 18 17 17 16 15 14 16 18 19 18 18 18 18 17 17 16 16 17 17 17 18 19 20 21 22 22 22 21 19 18 16 15 15 14 14 13 13 13 14 15 15 15 15 16 16 16 16 16 16 17 19 20 21 22 23 24 25 26 26 27 28 29 27 22 16 14 15 16 16 15 15 15 17
16 15 16 16 16 16 16 15 14 14 15 16 16 16 16 15 15 16 17 18 18 18 19 19 16 14 13 15 16 17 17 18 19 21 22 22 22 22 21 19 17 16 14 14 13 13 13 14 14 14 15 16 15 15 15 16 17 17 16 16 16 17 18 19 20 21 22 23 24 25 26 26 26 27 28 27 24 18 15 16 17 17 16 16 16
13 13 14 14 13 14 14 13 12 11 11 11 12 12 12 11 11 12 14 15 15 16 18 17 14 12 13 15 17 17 18 19 22 23 23 22 22 21 19 17 15 13 13 13 13 14 14 15 15 16 16 16 16 16 16 17 17 17 17 16 17 17 17 18 19 20 21 22 22 23 25 26 26 26 27 28 28 25 20 16 16 16 16 16 16
12 11 11 10 10 10 10 10 10 9 8 8 8 8 8 8 9 10 11 12 12 13 14 13 13 13 14 16 16 17 19 22 23 23 23 22 21 19 16 14 12 12 12 13 14 15 16 16 17 16 17 17 17 17 17 17 17 17 17 17 17 17 17 18 18 19 20 20 21 21 23 24 25 26 26 26 27 28 26 23 18 15 15 16 16
Wind_Direction
279 273 265 261 264 272 281 287 287 285 284 277 271 267 265 263 263 268 277 278 273 271 271 274 278 276 270 263 258 256 254 251 249 246 245 245 246 247 249 251 252 253 254 256 259 262 265 268 271 274 276 279 281 282 283 284 285 285 284 283 283 283 282 281 280 278 277 275 274 273 274 275 276 278 279 279 280 282 284 284 284 283 282 280 278
276 269 264 263 265 268 274 280 281 282 283 280 278 274 269 267 264 264 270 275 275 276 277 281 284 286 281 273 264 259 255 251 249 248 248 248 248 248 249 249 249 250 252 255 259 264 268 271 273 275 276 276 275 274 273 275 278 280 282 282 281 281 282 282 282 282 280 278 276 274 273 273 274 275 276 277 277 277 279 281 284 285 286 286 286
278 274 271 272 271 270 269 268 266 269 273 274 279 279 272 269 269 265 265 270 275 278 279 281 283 284 280 274 269 264 259 253 250 250 251 252 253 253 252 251 250 250 251 253 255 258 263 268 271 274 277 278 278 276 273 272 272 274 276 278 279 280 280 281 281 280 279 277 275 273 271 270 270 270 270 272 273 273 273 274 276 279 282 284 285
278 279 280 280 277 273 271 269 266 266 266 267 272 276 273 270 270 268 266 267 270 274 278 280 280 279 275 269 270 271 267 261 256 255 255 256 257 258 257 255 253 253 254 256 258 261 264 267 268 272 276 279 279 279 277 274 271 270 271 272 274 276 278 278 278 277 277 275 273 271 269 267 266 267 267 267 268 269 270 271 271 272 274 277 280
278 281 285 285 282 278 275 273 271 269 268 267 271 275 276 271 268 269 270 270 269 272 275 274 271 275 276 274 274 273 269 267 265 263 262 261 262 262 262 262 260 258 257 258 262 266 269 269 267 269 275 278 278 277 276 275 273 271 270 270 271 272 273 273 274 274 274 275 274 273 272 271 270 269 269 269 268 268 267 267 268 271 273 274 275
277 280 284 286 286 284 280 279 279 276 272 271 274 276 275 270 266 268 270 270 271 273 273 271 268 270 272 272 272 271 269 271 272 269 264 261 262 264 268 270 269 266 263 262 263 266 268 269 268 269 273 276 275 272 270 271 271 270 269 269 269 269 270 270 270 270 271 271 272 272 272 271 271 270 269 269 269 268 268 267 266 268 272 275 277
276 277 279 282 284 285 285 285 287 283 278 278 281 281 277 273 270 268 268 270 273 274 275 274 273 271 270 267 264 263 264 267 270 268 262 260 263 267 270 273 273 270 268 266 266 268 271 273 274 274 275 276 275 270 266 266 268 267 266 265 266 267 268 269 269 270 270 270 270 269 268 268 268 268 267 266 265 264 265 268 270 271 273 277 280
273 274 274 277 280 282 283 285 287 287 284 284 284 283 281 276 272 272 273 274 274 273 272 272 273 273 272 268 264 262 260 262 265 264 259 259 263 266 270 275 274 271 268 266 266 268 271 275 277 278 278 276 274 270 265 264 265 265 263 261 263 264 265 267 268 269 270 269 269 268 267 266 265 265 265 264 261 259 259 263 269 273 276 279 283
272 272 272 273 276 278 278 279 280 282 283 283 282 281 280 276 272 271 270 271 272 270 268 271 274 273 268 266 266 266 264 263 262 259 257 258 260 263 273 279 277 274 271 267 266 267 269 272 275 278 278 276 274 271 267 264 263 263 261 259 259 261 262 265 267 268 268 268 268 268 267 267 267 266 265 263 260 257 256 259 263 267 271 276 280
274 274 273 273 274 275 275 274 274 276 278 279 278 277 277 275 274 272 270 271 271 266 265 270 271 266 262 262 265 267 267 264 259 256 256 257 259 266 278 282 277 275 273 271 269 269 269 269 269 271 272 272 272 271 269 267 265 263 261 259 259 261 264 266 267 268 268 268 267 267 267 267 267 267 267 265 262 260 259 260 262 265 267 271 276
275 275 275 274 274 274 273 273 273 273 273 273 273 273 273 273 275 275 273 271 267 264 266 269 266 262 260 259 259 261 262 260 256 255 259 262 265 270 278 281 278 273 270 268 268 268 267 266 266 266 268 270 271 272 271 270 268 266 264 264 264 265 267 268 269 269 269 269 269 269 269 268 268 268 268 267 266 265 264 264 265 266 267 269 273
275 275 275 275 274 273 272 272 272 270 269 268 267 268 270 271 272 272 272 271 268 264 263 261 259 258 256 255 255 256 257 258 258 260 264 267 268 270 274 278 278 274 271 269 268 267 266 265 265 265 266 268 270 270 271 271 270 268 268 268 268 268 269 270 271 271 271 271 271 270 269 268 268 268 268 268 268 268 268 267 267 268 268 269 271
274 274 273 273 272 271 271 270 269 266 264 263 263 263 266 269 270 268 268 268 264 260 257 255 255 257 257 258 260 260 259 259 260 263 266 269 269 270 273 275 275 274 274 272 271 269 268 267 266 266 266 267 268 269 270 271 271 270 270 270 270 270 270 270 271 272 271 271 270 269 268 267 266 265 266 266 267 267 267 267 268 268 269 270 271
271 270 270 269 269 268 268 267 265 263 262 262 261 262 264 267 267 265 264 262 258 255 257 258 258 259 259 261 262 262 260 258 259 263 267 270 271 273 273 274 275 275 275 274 273 272 271 271 270 270 269 269 270 271 272 273 274 274 273 273 272 272 272 272 273 273 271 270 270 269 269 268 267 266 266 266 267 267 267 267 268 269 269 270 271
268 268 268 268 267 266 264 262 261 261 262 264 264 266 268 267 265 263 260 258 257 258 259 260 259 259 258 259 261 261 259 259 261 265 269 270 272 273 274 275 276 277 277 276 274 273 272 272 271 271 272 272 273 273 274 275 275 276 275 275 275 275 275 275 275 274 273 272 272 271 271 270 270 269 269 269 269 269 269 268 268 268 269 269 270
266 269 270 269 267 265 263 262 262 262 264 265 267 267 267 266 263 260 258 258 258 259 261 261 262 261 260 260 260 259 260 262 265 269 271 273 274 274 275 276 277 278 280 279 277 275 273 272 271 270 271 271 272 272 273 273 274 274 274 275 275 275 275 276 276 275 275 274 274 274 274 273 273 272 272 272 271 271 271 270 270 269 269 269 269
263 269 270 267 265 264 264 264 263 262 263 263 263 263 263 264 263 260 259 259 260 262 263 264 264 265 265 263 261 260 260 263 266 269 273 275 276 277 277 278 279 280 282 282 280 278 277 274 272 271 270 270 270 271 271 272 272 272 273 274 274 275 276 276 277 277 277 277 276 276 276 275 274 273 273 272 272 271 271 271 271 271 270 270 269
262 265 264 263 265 265 265 265 264 262 261 260 260 261 263 264 264 263 262 263 264 265 265 266 266 267 266 264 262 261 261 262 266 271 275 277 278 278 278 277 279 281 282 282 280 279 278 277 275 273 272 272 271 271 271 271 272 272 273 274 275 276 277 278 278 278 278 278 278 277 277 276 276 275 274 273 272 272 271 271 271 271 271 270 269
261 261 258 259 262 263 264 267 266 263 261 261 261 262 263 263 264 264 264 265 266 266 266 267 268 268 267 265 264 263 263 265 269 275 278 279 278 278 278 277 278 280 281 280 279 279 278 277 275 275 274 273 273 272 272 273 273 274 276 277 278 278 278 278 279 279 279 279 278 278 277 277 276 276 275 274 273 272 272 271 270 270 270 269 269
260 258 254 251 251 253 255 260 262 259 257 257 260 261 262 263 264 264 264 264 264 263 264 265 266 266 267 267 266 266 266 268 273 277 278 278 277 277 277 277 279 280 280 280 279 279 278 277 276 275 275 275 275 275 275 276 277 278 279 279 279 280 280 280 280 280 280 280 279 279 278 277 276 275 275 274 274 273 273 272 271 270 269 269 269
260 258 254 249 248 247 248 250 252 251 250 251 254 255 257 258 261 264 265 263 261 260 259 260 261 262 263 265 266 267 268 271 274 275 275 275 276 277 278 279 280 281 281 280 280 279 278 277 276 276 276 276 276 277 278 279 280 280 280 281 281 282 282 282 282 282 281 281 280 279 278 278 277 277 277 277 276 276 275 275 274 274 273 272 271
261 259 255 252 250 249 249 249 250 250 250 251 253 254 254 255 255 256 257 258 259 260 259 260 262 263 263 264 266 267 269 271 271 272 272 274 277 278 279 280 280 281 281 281 280 280 279 279 278 278 278 278 278 279 280 281 281 281 282 282 282 283 282 282 282 281 280 280 279 279 279 279 279 280 280 280 280 280 279 279 278 278 277 276 276
263 261 258 256 253 252 252 252 252 252 253 253 253 254 255 255 255 253 253 255 257 258 260 262 265 266 267 267 268 269 269 268 269 271 273 275 277 278 279 279 280 281 281 281 281 280 280 280 280 280 279 280 280 281 281 281 282 282 282 282 282 282 282 281 281 280 280 280 280 280 280 281 282 282 283 283 283 283 283 282 282 281 280 279 279
263 262 260 259 257 256 255 255 255 255 256 256 256 255 255 256 257 256 255 256 259 262 265 266 267 268 269 269 269 269 268 268 269 272 274 275 276 277 277 278 279 279 279 280 280 280 281 281 281 281 281 281 281 281 281 281 281 282 282 282 282 281 281 280 280 281 281 281 281 282 282 282 283 284 284 284 284 284 283 283 282 282 281 281 280
262 261 261 259 259 258 257 257 258 258 257 256 256 254 253 253 255 255 256 258 260 262 264 265 266 268 268 268 268 268 268 269 270 272 273 274 275 275 276 276 277 277 278 279 279 280 280 281 281 281 280 280 280 281 281 282 282 283 283 282 282 281 281 282 283 283 283 283 283 284 284 284 284 284 284 284 284 283 283 282 282 281 281 281 280
260 260 260 260 259 259 258 258 259 258 256 253 252 251 251 252 253 255 257 259 258 257 258 263 266 268 268 268 268 268 268 269 270 271 273 274 274 275 275 275 275 276 276 277 278 280 281 281 280 280 279 279 279 281 282 282 283 283 282 282 282 283 283 285 285 286 286 286 286 286 286 285 285 285 284 284 283 283 282 282 281 281 281 280 280
263 262 261 260 260 260 260 259 259 259 258 256 255 255 255 255 255 256 259 260 257 256 258 261 263 264 265 267 267 267 268 269 270 272 274 274 275 275 274 274 274 275 276 277 278 279 279 278 278 277 276 277 279 280 280 280 280 280 281 282 283 284 285 286 287 288 288 288 287 286 286 285 285 284 284 283 283 283 283 283 282 282 282 282 281
265 264 263 262 261 260 259 259 259 259 259 258 258 258 258 258 258 258 259 258 256 255 255 257 259 261 262 264 265 267 268 270 272 274 274 274 274 273 273 273 273 274 275 276 277 277 277 277 276 276 276 278 279 279 279 279 279 281 282 284 286 287 288 289 289 289 288 287 287 286 285 285 284 284 284 284 284 284 285 285 285 284 284 283 282
265 264 264 263 262 261 260 259 258 258 257 258 258 258 258 259 260 259 259 258 257 255 256 256 258 259 261 262 264 265 267 269 272 273 273 273 272 271 271 271 272 273 273 273 273 273 273 274 276 278 278 278 278 278 279 280 281 284 286 288 289 290 290 290 289 288 288 287 286 286 285 285 285 286 286 287 287 287 287 287 287 286 285 284 283
263 263 263 262 262 261 260 260 259 258 257 257 256 256 257 256 257 257 257 258 258 257 257 257 258 259 261 262 263 264 266 268 270 270 270 270 269 268 268 268 269 271 272 271 270 270 271 274 277 279 278 278 278 279 281 283 285 287 289 290 291 290 289 289 288 288 289 289 288 288 288 288 288 288 289 289 289 290 290 289 288 287 286 285 283
260 261 261 261 261 260 260 259 258 256 254 254 255 255 255 254 254 255 255 254 255 256 257 258 259 260 260 262 263 265 266 267 268 268 267 267 266 265 265 265 266 268 269 269 269 270 272 275 277 278 278 278 280 282 284 286 288 289 290 290 289 288 288 290 292 294 294 294 293 292 291 290 291 291 292 292 292 292 291 290 290 289 289 288 287
258 258 258 258 258 258 258 257 256 254 252 251 252 252 251 252 253 255 255 254 253 254 255 255 256 258 260 262 263 264 264 265 265 265 264 263 263 262 262 263 264 266 268 268 269 270 273 275 276 277 278 279 281 283 286 288 289 289 288 287 286 288 293 299 302 302 300 298 296 294 293 294 295 296 296 295 293 292 292 293 294 294 294 294 295
258 257 256 256 257 256 256 256 255 254 253 251 250 249 249 250 251 253 255 255 255 256 256 254 254 256 259 261 262 262 263 263 263 262 261 261 260 260 260 262 264 266 268 269 270 271 272 274 275 276 278 280 282 284 286 286 286 283 281 282 289 297 304 307 309 308 306 303 300 299 299 300 300 299 297 295 294 294 295 296 297 297 298 299 299
258 256 255 254 254 255 254 254 254 253 252 251 249 248 248 249 249 249 251 253 254 255 256 256 254 255 257 259 260 261 261 262 262 261 260 259 258 258 259 260 262 265 267 268 270 271 271 272 274 276 278 280 281 283 282 280 276 274 277 287 297 303 308 312 316 316 314 310 307 306 306 305 303 300 298 296 296 296 297 297 297 298 299 300 301
260 257 254 253 252 252 253 253 252 252 251 250 248 247 247 247 247 247 248 251 253 254 256 258 258 257 256 257 259 260 260 261 261 260 259 258 258 258 258 259 261 263 265 267 268 269 270 272 274 276 277 278 278 276 273 267 264 271 284 295 300 306 313 320 323 323 320 315 311 310 310 307 303 301 299 298 298 299 300 300 300 301 303 305 307
262 258 254 251 249 249 251 251 251 251 250 249 247 246 245 245 245 246 247 249 251 253 256 259 260 260 258 256 257 258 258 258 258 258 258 258 258 258 258 259 261 263 265 266 268 269 271 273 274 274 273 271 268 263 256 253 262 278 289 296 303 312 320 325 327 327 323 317 313 311 309 305 302 302 302 301 301 302 302 304 305 307 310 312 312
264 259 254 250 246 244 245 248 249 250 250 249 248 246 244 243 244 245 245 247 249 251 254 257 258 259 258 255 254 255 255 256 257 258 258 258 258 258 258 259 261 263 264 265 267 269 270 270 268 265 262 258 253 245 242 251 268 280 289 300 311 318 323 327 329 330 328 321 313 309 306 302 301 303 304 303 303 301 302 306 310 312 313 314 314
264 260 255 251 246 242 240 242 245 247 248 249 248 247 245 243 242 242 242 243 245 248 252 256 257 256 254 253 251 251 253 254 256 256 256 256 256 257 258 259 260 261 262 264 266 266 264 261 257 253 248 242 236 233 241 256 268 281 295 308 316 320 325 329 332 335 335 329 317 308 306 303 301 304 305 302 301 302 305 309 313 313 312 314 315
260 259 256 250 246 242 238 238 240 243 244 246 246 246 245 244 244 243 242 241 242 241 241 245 250 250 249 247 247 248 250 252 252 252 252 252 254 255 256 256 257 258 260 261 261 258 253 247 243 238 233 230 230 236 246 256 269 288 303 312 317 322 328 332 335 339 343 340 325 310 307 307 302 301 301 298 298 303 307 309 311 311 313 317 320
257 257 255 248 241 235 231 231 235 238 240 240 240 242 245 246 246 245 242 241 239 236 232 233 239 243 243 242 243 244 247 248 247 247 248 250 251 252 251 250 251 252 253 253 250 245 238 232 229 227 227 230 234 239 246 257 276 296 306 311 317 323 329 334 337 343 349 351 340 317 304 303 301 298 297 297 298 302 306 307 311 316 321 322 322
264 256 248 238 228 222 220 223 228 231 234 236 237 240 244 245 245 243 238 234 233 232 230 230 233 235 235 235 236 238 240 242 243 244 246 246 244 241 241 242 244 245 244 242 236 227 222 221 223 226 230 233 235 238 245 261 283 297 304 310 318 325 330 335 340 346 352 356 354 335 305 295 297 299 298 299 301 303 307 313 318 323 326 326 326
282 258 238 223 214 210 211 216 223 228 231 233 235 238 238 235 233 230 222 212 212 217 220 221 222 222 221 224 227 231 234 236 238 239 237 233 231 231 235 238 238 236 232 225 218 214 216 219 224 229 232 232 232 236 247 267 283 293 302 311 320 326 329 335 342 349 353 358 360 353 327 297 294 301 303 302 303 306 311 319 325 328 330 333 337
21 305 222 210 205 205 209 216 223 227 228 231 235 237 229 218 212 209 200 193 197 204 206 205 208 210 210 212 216 220 223 226 227 224 220 220 224 229 232 231 227 221 214 210 209 212 217 222 227 231 230 228 229 237 251 268 280 290 302 312 319 324 329 334 342 350 354 358 1 1 351 323 302 305 309 307 306 309 314 319 325 330 335 342 349
47 57 83 165 192 203 212 220 224 227 230 232 229 217 201 193 193 193 189 185 187 189 186 183 187 195 199 201 204 208 211 212 211 210 213 218 221 220 218 216 211 206 205 206 210 214 219 224 228 228 225 224 231 242 254 266 277 289 302 311 317 323 327 333 341 349 354 358 1 3 2 350 326 312 313 313 309 306 310 319 326 329 335 346 353
49 56 64 77 107 168 204 219 225 228 227 217 200 187 184 184 181 176 171 169 169 169 171 174 182 189 193 196 198 200 201 202 205 209 212 212 208 207 209 208 204 202 204 208 211 215 220 224 225 223 222 226 235 244 254 264 275 287 298 307 315 321 325 331 338 347 353 356 360 3 6 4 352 330 315 313 311 303 303 318 331 334 338 345 350
50 56 64 73 80 83 86 92 110 164 183 180 176 174 173 168 160 156 157 162 166 171 179 184 185 185 188 191 193 196 199 203 206 209 208 206 206 207 207 204 202 203 205 208 211 214 218 220 221 222 225 232 240 247 254 263 273 283 293 302 311 318 323 329 336 344 350 354 358 1 6 8 6 355 332 313 307 302 302 312 325 334 341 345 348
55 57 62 73 82 87 88 88 92 106 129 146 155 157 154 152 153 158 166 175 182 187 188 186 182 182 184 188 192 197 203 206 206 207 208 209 207 203 200 200 201 202 205 207 209 212 215 218 222 227 233 238 243 249 256 263 271 280 290 299 308 316 321 326 333 340 347 350 354 358 2 8 10 7 357 335 312 299 298 305 314 323 334 342 347
60 64 66 71 77 83 89 96 104 115 127 137 146 150 153 158 167 173 176 181 187 188 185 181 180 182 187 194 201 206 208 208 207 208 210 207 201 196 196 198 200 202 204 206 208 211 217 222 227 233 238 243 246 251 258 264 270 278 286 295 304 312 318 324 330 337 342 346 349 353 357 3 8 9 7 359 341 313 297 297 304 311 320 331 340
56 65 72 76 79 82 85 90 99 110 121 131 139 146 151 157 162 167 171 175 178 180 180 180 182 190 202 209 210 210 210 209 208 208 205 199 194 193 196 198 200 201 204 207 212 217 223 228 232 237 241 245 249 253 259 265 270 276 284 293 301 308 314 320 327 333 337 341 346 349 352 355 1 6 8 8 2 347 320 300 296 300 307 316 327
56 60 66 73 80 85 86 87 91 100 109 117 124 132 140 148 156 161 165 168 173 179 182 185 194 212 219 214 209 209 211 210 207 203 197 193 192 195 197 199 201 204 208 215 221 226 229 232 235 239 243 247 252 256 260 265 270 276 282 291 299 306 311 317 323 328 332 336 342 346 348 349 352 358 4 8 8 4 354 332 308 296 295 302 311
52 55 57 61 68 74 78 79 80 86 98 112 123 134 149 162 171 175 176 178 184 189 194 202 215 222 217 211 210 212 211 207 201 196 193 193 195 196 198 201 207 213 220 227 231 233 235 236 238 241 245 249 254 258 261 265 269 275 281 288 296 303 307 312 318 323 327 331 337 342 344 344 346 349 356 3 6 7 6 359 343 318 299 294 298
Height
5739 5739 5739 5739 5740 5740 5740 5740 5740 5740 5740 5740 5740 5740 5741 5741 5742 5742 5742 5742 5742 5743 5743 5743 5744 5744 5745 5746 5745 5745 5745 5745 5745 5745 5745 5745 5746 5746 5747 5747 5747 5747 5748 5748 5748 5748 5748 5749 5749 5749 5749 5749 5750 5750 5750 5750 5750 5750 5750 5750 5750 5750 5750 5750 5751 5751 5751 5751 5751 5751 5751 5750 5750 5750 5750 5750 5749 5749 5749 5748 5748 5749 5749 5750 5750
5736 5737 5737 5737 5737 5737 5738 5738 5738 5738 5738 5738 5738 5738 5739 5739 5739 5740 5739 5739 5740 5740 5740 5741 5741 5742 5743 5743 5744 5743 5743 5743 5743 5743 5743 5743 5744 5744 5744 5745 5745 5746 5746 5746 5746 5746 5747 5747 5747 5747 5747 5747 5747 5748 5748 5748 5748 5748 5748 5748 5748 5748 5748 5748 5748 5749 5749 5749 5749 5749 5749 5748 5748 5748 5747 5747 5747 5747 5747 5746 5746 5746 5746 5746 5746
5733 5734 5734 5735 5735 5735 5735 5735 5736 5735 5735 5736 5736 5736 5737 5737 5737 5737 5737 5737 5737 5737 5737 5738 5738 5739 5739 5740 5740 5741 5741 5741 5741 5741 5741 5741 5741 5742 5742 5742 5743 5743 5744 5744 5744 5744 5745 5745 5745 5745 5745 5745 5745 5745 5745 5745 5745 5745 5745 5745 5745 5746 5746 5746 5746 5746 5746 5747 5747 5747 5747 5746 5746 5745 5745 5745 5744 5744 5744 5744 5744 5743 5743 5743 5743
5730 5731 5731 5732 5732 5732 5733 5733 5734 5733 5733 5734 5734 5734 5734 5734 5734 5735 5735 5735 5735 5734 5734 5735 5735 5735 5736 5736 5737 5738 5738 5739 5739 5739 5739 5739 5739 5740 5740 5740 5741 5741 5741 5742 5742 5742 5742 5742 5742 5742 5742 5742 5742 5742 5742 5742 5742 5742 5742 5742 5742 5743 5743 5743 5743 5743 5743 5743 5743 5744 5744 5744 5744 5743 5743 5742 5742 5741 5741 5741 5741 5740 5740 5740 5740
5727 5728 5728 5728 5729 5729 5730 5731 5731 5731 5731 5731 5731 5731 5731 5731 5731 5732 5732 5732 5732 5732 5732 5732 5732 5733 5733 5733 5734 5734 5735 5736 5736 5737 5737 5737 5737 5737 5738 5738 5738 5739 5739 5739 5739 5739 5739 5740 5740 5740 5740 5740 5740 5740 5740 5739 5739 5739 5739 5739 5739 5740 5740 5740 5740 5740 5739 5739 5740 5740 5740 5740 5740 5740 5739 5739 5739 5738 5738 5738 5737 5737 5737 5737 5737
5723 5724 5724 5725 5725 5726 5727 5727 5728 5728 5728 5728 5728 5728 5728 5728 5728 5728 5728 5729 5729 5729 5730 5730 5730 5730 5730 5730 5731 5731 5732 5732 5733 5733 5734 5734 5735 5735 5735 5735 5736 5736 5736 5736 5736 5736 5736 5737 5737 5737 5737 5737 5737 5737 5736 5736 5736 5736 5736 5737 5737 5737 5737 5736 5736 5736 5736 5736 5736 5736 5736 5736 5736 5736 5736 5735 5735 5734 5734 5733 5733 5733 5733 5733 5733
5719 5720 5720 5721 5722 5722 5723 5724 5724 5725 5725 5725 5724 5724 5724 5725 5725 5726 5726 5726 5726 5726 5727 5727 5727 5727 5727 5727 5728 5728 5728 5729 5729 5729 5730 5731 5731 5732 5732 5732 5732 5732 5733 5733 5733 5733 5733 5733 5733 5733 5734 5734 5734 5733 5733 5733 5733 5733 5733 5733 5734 5734 5734 5733 5733 5733 5733 5732 5732 5732 5732 5732 5732 5731 5731 5731 5731 5730 5730 5729 5729 5728 5728 5728 5728
5715 5716 5716 5717 5718 5718 5719 5720 5720 5721 5721 5721 5721 5721 5721 5721 5722 5723 5723 5723 5723 5723 5723 5723 5723 5724 5724 5724 5724 5724 5724 5724 5725 5725 5726 5726 5727 5728 5728 5728 5728 5729 5729 5729 5730 5730 5730 5730 5730 5730 5730 5729 5730 5730 5729 5729 5729 5729 5730 5730 5730 5730 5730 5730 5729 5729 5729 5729 5728 5728 5728 5728 5728 5727 5727 5726 5726 5726 5726 5725 5725 5724 5723 5723 5722
5711 5711 5712 5712 5713 5714 5714 5715 5716 5716 5716 5716 5716 5717 5718 5718 5718 5719 5719 5718 5718 5719 5719 5720 5720 5721 5721 5720 5721 5720 5720 5720 5721 5721 5721 5722 5723 5724 5724 5724 5724 5725 5725 5725 5726 5726 5726 5727 5727 5726 5726 5725 5725 5725 5725 5725 5725 5725 5725 5726 5726 5726 5726 5725 5725 5725 5725 5724 5724 5724 5723 5723 5723 5723 5722 5722 5722 5721 5721 5720 5720 5720 5719 5718 5717
5706 5706 5707 5707 5708 5709 5709 5710 5711 5711 5711 5711 5712 5713 5714 5713 5714 5715 5714 5714 5714 5714 5715 5716 5717 5717 5716 5716 5717 5718 5717 5717 5717 5717 5717 5718 5719 5719 5719 5720 5720 5720 5720 5720 5721 5721 5722 5722 5722 5722 5721 5720 5720 5720 5720 5720 5721 5721 5721 5721 5721 5721 5721 5720 5720 5720 5720 5719 5719 5719 5719 5718 5718 5718 5718 5717 5716 5716 5716 5715 5715 5714 5714 5713 5712
5701 5701 5702 5702 5703 5704 5704 5704 5705 5706 5706 5706 5707 5708 5709 5708 5709 5709 5710 5709 5709 5710 5711 5712 5712 5712 5712 5712 5714 5714 5714 5713 5713 5713 5713 5714 5715 5715 5715 5715 5715 5715 5716 5716 5716 5716 5717 5717 5717 5716 5716 5715 5715 5715 5715 5715 5715 5715 5716 5716 5716 5715 5715 5714 5714 5715 5715 5714 5714 5714 5713 5713 5712 5712 5711 5711 5711 5710 5710 5709 5709 5708 5708 5708 5707
5695 5696 5696 5697 5697 5697 5698 5699 5699 5700 5700 5701 5702 5703 5703 5704 5704 5705 5705 5705 5704 5705 5706 5707 5707 5707 5708 5708 5709 5710 5709 5709 5709 5710 5709 5710 5710 5710 5710 5711 5711 5711 5711 5711 5711 5711 5711 5712 5712 5711 5711 5710 5709 5709 5709 5709 5709 5709 5709 5709 5709 5709 5708 5708 5708 5709 5709 5708 5708 5708 5708 5707 5706 5705 5705 5704 5704 5704 5703 5702 5702 5702 5701 5701 5701
5689 5689 5690 5690 5691 5691 5691 5692 5693 5693 5694 5694 5696 5697 5698 5698 5698 5699 5701 5701 5700 5699 5700 5701 5702 5703 5703 5703 5704 5704 5705 5705 5705 5705 5704 5705 5705 5706 5706 5707 5707 5706 5706 5706 5706 5706 5706 5706 5706 5706 5705 5704 5704 5703 5703 5702 5702 5702 5702 5702 5702 5702 5702 5701 5702 5702 5702 5701 5700 5700 5700 5699 5699 5698 5697 5697 5696 5695 5695 5694 5693 5693 5693 5693 5692
5681 5682 5683 5683 5684 5684 5684 5685 5686 5686 5687 5688 5689 5691 5691 5692 5692 5694 5695 5695 5694 5694 5695 5696 5697 5698 5698 5698 5698 5698 5699 5700 5700 5700 5700 5700 5701 5701 5701 5701 5701 5701 5701 5701 5700 5700 5700 5700 5700 5700 5699 5698 5698 5697 5696 5696 5695 5695 5695 5695 5694 5694 5694 5694 5695 5695 5694 5692 5692 5691 5691 5691 5690 5690 5689 5688 5687 5686 5686 5686 5685 5684 5684 5684 5683
5675 5675 5676 5677 5677 5678 5678 5679 5679 5680 5681 5681 5682 5683 5684 5685 5685 5687 5688 5688 5687 5688 5689 5690 5691 5692 5692 5693 5693 5693 5694 5694 5695 5695 5696 5696 5696 5696 5696 5696 5695 5695 5695 5695 5695 5695 5695 5694 5694 5694 5693 5692 5692 5691 5690 5690 5689 5689 5688 5687 5687 5687 5687 5687 5687 5686 5685 5685 5684 5683 5683 5682 5682 5681 5680 5679 5678 5677 5677 5676 5675 5675 5675 5675 5674
5669 5669 5670 5670 5670 5671 5672 5672 5673 5674 5675 5675 5675 5675 5676 5676 5678 5679 5680 5680 5681 5681 5682 5683 5684 5685 5686 5686 5687 5687 5688 5688 5689 5689 5690 5690 5690 5690 5690 5689 5689 5689 5689 5689 5689 5689 5689 5689 5689 5688 5687 5687 5686 5685 5685 5684 5683 5682 5681 5681 5680 5680 5680 5679 5679 5678 5678 5677 5676 5675 5674 5674 5673 5672 5670 5669 5668 5668 5667 5667 5666 5665 5666 5666 5665
5662 5663 5663 5662 5663 5664 5665 5666 5667 5667 5668 5668 5668 5668 5669 5669 5671 5672 5673 5674 5674 5675 5675 5676 5677 5678 5679 5680 5680 5681 5682 5683 5683 5684 5684 5684 5683 5683 5683 5683 5682 5682 5682 5683 5683 5683 5683 5683 5683 5682 5681 5681 5680 5679 5679 5678 5677 5676 5675 5674 5674 5674 5673 5673 5672 5671 5670 5669 5668 5667 5666 5665 5664 5662 5661 5660 5659 5658 5657 5657 5656 5655 5656 5656 5656
5655 5657 5657 5656 5657 5658 5659 5659 5659 5660 5660 5660 5661 5661 5662 5663 5664 5665 5666 5667 5667 5668 5668 5669 5670 5671 5672 5673 5674 5675 5676 5676 5677 5677 5677 5677 5677 5677 5676 5676 5676 5676 5676 5676 5676 5677 5677 5676 5676 5676 5675 5674 5674 5673 5672 5671 5670 5670 5669 5668 5668 5667 5667 5666 5665 5664 5663 5662 5661 5659 5658 5656 5655 5653 5652 5650 5649 5648 5648 5647 5646 5645 5645 5645 5645
5649 5650 5651 5651 5651 5652 5652 5652 5652 5653 5653 5653 5654 5654 5654 5655 5656 5657 5658 5659 5660 5660 5661 5662 5663 5664 5665 5666 5667 5668 5669 5669 5669 5669 5670 5670 5670 5670 5670 5670 5670 5670 5670 5670 5670 5670 5670 5669 5669 5669 5668 5667 5667 5666 5665 5665 5664 5664 5663 5662 5662 5661 5660 5659 5658 5657 5656 5654 5653 5651 5650 5648 5646 5644 5643 5641 5639 5638 5638 5637 5636 5635 5635 5635 5634
5640 5642 5643 5644 5645 5645 5645 5645 5646 5646 5647 5647 5647 5648 5648 5649 5650 5651 5652 5652 5653 5654 5654 5655 5656 5657 5658 5659 5660 5661 5661 5662 5662 5662 5662 5663 5663 5663 5664 5664 5664 5664 5664 5663 5663 5663 5662 5662 5662 5661 5661 5660 5659 5659 5658 5658 5658 5657 5657 5656 5655 5654 5653 5652 5651 5650 5648 5647 5645 5643 5642 5640 5638 5636 5634 5632 5631 5629 5628 5627 5626 5625 5625 5625 5624
5631 5632 5634 5635 5637 5638 5638 5638 5639 5639 5639 5640 5641 5642 5642 5643 5644 5645 5646 5646 5647 5648 5648 5649 5650 5651 5652 5653 5653 5654 5655 5655 5655 5655 5656 5656 5656 5657 5657 5657 5657 5657 5657 5656 5656 5656 5655 5655 5654 5654 5653 5653 5652 5652 5652 5652 5651 5651 5650 5648 5648 5647 5646 5645 5644 5642 5641 5639 5637 5635 5633 5631 5629 5627 5626 5624 5622 5621 5619 5618 5616 5615 5615 5614 5614
5621 5622 5624 5626 5628 5630 5631 5632 5632 5633 5633 5633 5634 5635 5636 5637 5638 5640 5640 5639 5640 5641 5642 5643 5644 5645 5646 5647 5647 5648 5648 5649 5649 5649 5649 5649 5650 5650 5650 5650 5650 5650 5649 5649 5649 5649 5648 5648 5647 5647 5647 5646 5646 5646 5645 5645 5644 5644 5643 5642 5641 5640 5639 5637 5636 5635 5633 5631 5630 5628 5626 5624 5622 5620 5618 5616 5615 5613 5611 5609 5608 5607 5606 5605 5604
5611 5613 5615 5616 5618 5620 5622 5623 5624 5625 5626 5627 5628 5628 5629 5630 5631 5632 5632 5632 5632 5634 5635 5636 5637 5638 5639 5640 5640 5641 5642 5642 5643 5643 5643 5643 5643 5643 5643 5643 5643 5643 5642 5642 5642 5642 5642 5641 5641 5641 5640 5640 5640 5640 5639 5639 5638 5637 5636 5635 5634 5633 5632 5630 5629 5627 5626 5624 5622 5621 5618 5616 5615 5613 5611 5609 5608 5606 5603 5602 5600 5599 5598 5596 5595
5602 5604 5606 5607 5609 5611 5613 5614 5615 5616 5618 5619 5620 5621 5622 5622 5623 5624 5624 5625 5625 5626 5627 5628 5630 5630 5631 5631 5632 5633 5634 5635 5636 5636 5637 5637 5637 5638 5637 5637 5637 5636 5636 5636 5636 5636 5636 5635 5635 5635 5635 5634 5634 5634 5633 5632 5631 5630 5630 5629 5627 5626 5625 5623 5622 5620 5619 5617 5615 5614 5611 5609 5608 5606 5604 5603 5601 5598 5596 5595 5593 5591 5590 5589 5587
5592 5594 5596 5598 5599 5601 5603 5604 5606 5608 5609 5610 5611 5612 5613 5614 5614 5615 5616 5618 5619 5619 5619 5620 5621 5622 5622 5623 5624 5625 5626 5627 5628 5629 5630 5630 5631 5631 5631 5631 5631 5631 5631 5631 5631 5630 5630 5630 5630 5629 5629 5628 5628 5627 5627 5626 5625 5624 5623 5622 5620 5619 5617 5616 5615 5614 5612 5611 5609 5607 5605 5603 5601 5599 5597 5595 5593 5590 5588 5587 5586 5583 5582 5581 5580
5583 5585 5586 5588 5589 5591 5593 5595 5597 5598 5600 5601 5601 5602 5604 5605 5606 5607 5609 5611 5612 5612 5612 5613 5613 5613 5614 5615 5616 5617 5618 5619 5621 5622 5623 5624 5624 5624 5625 5625 5625 5625 5625 5625 5625 5625 5624 5624 5624 5623 5623 5622 5621 5621 5620 5620 5619 5618 5616 5615 5614 5612 5611 5610 5609 5607 5606 5604 5602 5600 5598 5596 5594 5591 5589 5587 5585 5582 5580 5579 5578 5576 5574 5572 5572
5572 5574 5576 5578 5579 5581 5582 5585 5586 5588 5590 5591 5592 5593 5595 5596 5597 5599 5601 5604 5605 5605 5605 5604 5604 5605 5606 5607 5608 5609 5611 5613 5614 5615 5617 5617 5618 5618 5618 5618 5618 5618 5619 5619 5619 5619 5619 5618 5618 5617 5617 5616 5616 5615 5614 5613 5612 5611 5610 5609 5608 5607 5606 5604 5603 5601 5599 5598 5595 5593 5591 5589 5586 5584 5582 5579 5577 5574 5572 5571 5570 5568 5566 5564 5563
5560 5562 5564 5566 5568 5570 5572 5574 5576 5578 5579 5581 5582 5583 5584 5586 5588 5590 5593 5595 5596 5595 5596 5596 5596 5597 5599 5600 5601 5603 5604 5606 5607 5609 5610 5611 5611 5612 5612 5611 5612 5612 5613 5613 5613 5613 5612 5612 5611 5611 5611 5611 5610 5609 5608 5607 5606 5606 5605 5604 5602 5601 5600 5598 5597 5595 5593 5591 5588 5586 5584 5581 5579 5576 5574 5572 5569 5566 5564 5562 5561 5560 5558 5556 5555
5547 5550 5552 5554 5556 5558 5560 5562 5565 5567 5569 5571 5572 5573 5574 5576 5578 5580 5582 5584 5586 5586 5587 5588 5589 5590 5592 5593 5595 5596 5598 5599 5601 5602 5603 5604 5605 5605 5605 5605 5605 5605 5606 5607 5607 5607 5606 5606 5606 5606 5606 5605 5604 5603 5602 5602 5601 5600 5599 5598 5597 5595 5594 5592 5590 5588 5586 5584 5581 5579 5576 5574 5571 5569 5567 5564 5562 5559 5556 5554 5553 5551 5549 5547 5546
5536 5539 5541 5543 5545 5547 5548 5551 5555 5557 5558 5560 5562 5563 5565 5567 5569 5571 5572 5574 5576 5578 5579 5580 5581 5582 5584 5586 5588 5589 5591 5593 5595 5596 5596 5597 5598 5598 5598 5598 5599 5599 5600 5601 5601 5600 5600 5600 5600 5600 5600 5599 5598 5598 5597 5597 5596 5595 5594 5593 5591 5590 5588 5587 5585 5582 5580 5577 5575 5572 5569 5567 5565 5562 5559 5557 5555 5552 5548 5546 5544 5543 5541 5539 5537
5525 5528 5529 5531 5534 5535 5537 5540 5545 5547 5548 5549 5551 5554 5555 5558 5560 5562 5564 5566 5568 5569 5571 5572 5573 5575 5577 5579 5581 5582 5584 5586 5588 5589 5590 5591 5591 5591 5592 5592 5593 5593 5594 5595 5595 5595 5595 5595 5595 5595 5594 5594 5593 5593 5592 5591 5591 5590 5589 5588 5586 5585 5583 5582 5579 5577 5574 5572 5569 5566 5563 5560 5557 5555 5552 5550 5547 5544 5540 5538 5537 5535 5533 5531 5530
5514 5518 5519 5520 5522 5524 5526 5529 5533 5537 5539 5541 5543 5546 5548 5551 5553 5555 5556 5558 5560 5561 5563 5564 5565 5567 5569 5572 5574 5575 5577 5579 5581 5582 5583 5584 5584 5585 5585 5586 5587 5587 5588 5589 5589 5590 5590 5590 5589 5589 5589 5589 5588 5588 5587 5587 5586 5585 5584 5583 5582 5581 5579 5577 5575 5572 5569 5566 5562 5559 5556 5553 5550 5548 5545 5542 5539 5537 5534 5532 5531 5529 5528 5526 5525
5503 5506 5508 5509 5511 5513 5515 5518 5521 5525 5529 5532 5535 5537 5540 5543 5547 5548 5549 5551 5552 5553 5555 5557 5559 5560 5563 5565 5567 5568 5570 5572 5574 5576 5577 5577 5578 5579 5580 5580 5581 5582 5583 5584 5584 5585 5585 5584 5584 5584 5584 5584 5584 5583 5583 5582 5582 5581 5580 5579 5578 5577 5575 5573 5570 5567 5563 5560 5556 5552 5549 5546 5544 5541 5538 5536 5533 5532 5530 5528 5527 5525 5524 5523 5521
5492 5494 5497 5499 5500 5502 5504 5507 5510 5513 5517 5522 5525 5528 5531 5534 5538 5540 5542 5543 5544 5545 5547 5550 5553 5555 5557 5558 5560 5562 5564 5566 5568 5569 5570 5571 5572 5574 5574 5575 5576 5577 5578 5578 5579 5579 5579 5579 5580 5580 5580 5579 5579 5579 5579 5578 5578 5577 5577 5576 5575 5574 5572 5569 5566 5562 5558 5554 5550 5546 5543 5540 5538 5536 5534 5531 5530 5528 5527 5525 5524 5523 5521 5520 5519
5482 5484 5486 5489 5491 5493 5494 5497 5499 5503 5507 5511 5515 5518 5522 5525 5527 5530 5533 5535 5536 5538 5540 5543 5546 5549 5551 5553 5554 5556 5559 5561 5562 5563 5564 5566 5567 5568 5569 5570 5571 5572 5573 5573 5574 5574 5574 5575 5575 5575 5575 5575 5575 5575 5575 5575 5575 5574 5574 5573 5572 5571 5568 5565 5561 5558 5553 5548 5544 5540 5538 5535 5534 5532 5530 5528 5527 5525 5524 5523 5521 5520 5519 5518 5516
5475 5476 5477 5479 5482 5484 5486 5488 5490 5493 5497 5501 5505 5509 5512 5515 5518 5521 5524 5527 5529 5531 5533 5536 5540 5543 5545 5547 5549 5551 5554 5555 5556 5558 5559 5560 5562 5563 5564 5565 5566 5567 5568 5568 5569 5569 5570 5570 5570 5570 5571 5571 5571 5571 5571 5572 5572 5572 5571 5571 5569 5567 5565 5562 5559 5555 5550 5544 5539 5536 5533 5532 5530 5529 5527 5526 5524 5523 5522 5520 5519 5518 5517 5515 5513
5468 5468 5469 5471 5474 5476 5479 5481 5483 5486 5489 5493 5496 5500 5503 5506 5509 5512 5516 5519 5522 5524 5527 5531 5534 5537 5539 5541 5544 5546 5548 5549 5551 5552 5554 5555 5556 5557 5558 5560 5561 5562 5563 5563 5564 5564 5565 5566 5566 5566 5566 5567 5567 5568 5568 5569 5569 5569 5569 5568 5566 5564 5562 5559 5556 5552 5546 5540 5535 5532 5530 5529 5528 5526 5525 5524 5522 5521 5519 5518 5517 5515 5514 5513 5511
5461 5462 5463 5464 5466 5469 5472 5475 5477 5480 5483 5486 5489 5492 5495 5498 5501 5505 5508 5512 5515 5519 5523 5526 5529 5531 5534 5536 5538 5541 5542 5544 5546 5548 5549 5550 5551 5552 5554 5556 5557 5558 5558 5559 5559 5560 5561 5561 5562 5562 5563 5564 5564 5565 5566 5566 5567 5567 5566 5565 5563 5562 5559 5556 5553 5548 5543 5537 5532 5530 5528 5526 5525 5524 5523 5521 5520 5519 5517 5516 5515 5513 5512 5511 5509
5456 5456 5457 5458 5460 5463 5467 5470 5473 5476 5479 5481 5484 5486 5488 5491 5494 5497 5501 5505 5510 5515 5519 5522 5523 5525 5528 5531 5533 5536 5538 5540 5541 5543 5543 5545 5546 5548 5550 5551 5552 5553 5554 5554 5555 5556 5557 5557 5558 5559 5560 5561 5562 5563 5564 5564 5564 5564 5563 5562 5561 5559 5557 5554 5550 5546 5540 5534 5530 5527 5526 5524 5523 5522 5521 5520 5518 5517 5515 5514 5513 5512 5510 5509 5507
5451 5452 5453 5454 5456 5459 5462 5465 5469 5472 5475 5477 5479 5481 5483 5485 5488 5491 5495 5499 5504 5508 5512 5515 5517 5520 5523 5526 5529 5531 5533 5535 5537 5538 5539 5540 5543 5544 5546 5547 5548 5549 5550 5550 5551 5552 5553 5554 5555 5556 5557 5558 5560 5561 5561 5562 5562 5561 5561 5560 5559 5557 5554 5552 5548 5543 5538 5533 5528 5525 5524 5522 5521 5520 5519 5518 5516 5515 5514 5513 5511 5510 5508 5506 5504
5448 5448 5449 5451 5453 5456 5459 5462 5465 5468 5470 5472 5474 5477 5480 5482 5484 5486 5490 5495 5499 5502 5506 5510 5513 5516 5519 5522 5525 5527 5529 5530 5532 5533 5535 5537 5539 5540 5541 5543 5544 5545 5546 5547 5548 5549 5550 5551 5553 5554 5555 5556 5558 5559 5559 5559 5559 5559 5558 5558 5556 5554 5552 5549 5546 5541 5537 5532 5527 5524 5522 5521 5519 5518 5517 5516 5515 5514 5512 5511 5510 5508 5506 5504 5502
5447 5447 5448 5449 5451 5453 5456 5459 5462 5464 5466 5468 5470 5473 5476 5478 5480 5482 5486 5491 5495 5498 5502 5506 5509 5512 5515 5518 5520 5522 5524 5526 5528 5530 5532 5534 5536 5537 5538 5539 5541 5542 5543 5544 5545 5546 5548 5549 5551 5552 5553 5555 5556 5556 5557 5557 5557 5557 5556 5555 5554 5552 5550 5547 5544 5540 5535 5531 5526 5523 5521 5519 5518 5517 5516 5514 5513 5512 5511 5510 5508 5507 5505 5503 5501
5447 5447 5448 5449 5451 5453 5455 5457 5459 5461 5463 5465 5467 5469 5472 5474 5477 5479 5483 5487 5490 5494 5499 5503 5506 5509 5512 5514 5517 5519 5521 5523 5525 5527 5530 5531 5533 5534 5535 5537 5538 5539 5540 5541 5543 5544 5546 5548 5549 5550 5551 5552 5553 5554 5554 5555 5555 5554 5554 5553 5551 5550 5547 5545 5542 5538 5535 5530 5526 5522 5519 5518 5516 5515 5514 5513 5512 5511 5510 5509 5507 5506 5504 5502 5499
5450 5449 5449 5450 5451 5453 5455 5457 5458 5460 5461 5463 5465 5467 5470 5472 5475 5478 5481 5485 5488 5492 5496 5500 5504 5507 5509 5512 5514 5516 5519 5521 5523 5525 5527 5529 5530 5532 5533 5534 5535 5537 5538 5540 5541 5543 5545 5546 5547 5548 5549 5550 5551 5552 5552 5552 5552 5552 5551 5550 5549 5547 5546 5543 5541 5537 5534 5530 5527 5523 5519 5517 5515 5514 5513 5512 5511 5510 5509 5508 5506 5505 5503 5500 5498
5455 5453 5452 5453 5453 5454 5455 5456 5457 5459 5460 5462 5464 5467 5470 5473 5476 5479 5483 5486 5489 5493 5496 5499 5502 5505 5508 5510 5512 5515 5517 5520 5522 5523 5525 5527 5528 5530 5531 5532 5534 5535 5537 5538 5540 5542 5543 5544 5545 5546 5547 5548 5549 5549 5550 5550 5550 5550 5549 5548 5547 5545 5544 5542 5539 5536 5533 5530 5527 5524 5520 5517 5514 5513 5512 5511 5510 5509 5508 5507 5506 5504 5502 5500 5498
5461 5459 5457 5457 5457 5457 5458 5458 5459 5459 5461 5463 5466 5469 5472 5475 5478 5481 5485 5488 5491 5494 5496 5499 5501 5504 5507 5510 5512 5514 5516 5518 5520 5521 5523 5525 5527 5528 5529 5531 5532 5534 5535 5537 5539 5540 5541 5542 5543 5544 5545 5546 5547 5547 5547 5548 5548 5548 5547 5546 5545 5544 5542 5540 5538 5535 5532 5529 5527 5524 5521 5517 5514 5512 5511 5510 5509 5508 5507 5506 5504 5503 5501 5499 5497
5466 5464 5463 5462 5462 5462 5462 5463 5463 5464 5466 5468 5470 5473 5476 5478 5481 5483 5486 5489 5492 5494 5496 5499 5501 5504 5506 5509 5511 5513 5515 5516 5518 5520 5522 5523 5524 5526 5527 5529 5531 5532 5534 5536 5537 5538 5539 5540 5541 5542 5543 5544 5544 5545 5545 5545 5546 5545 5545 5544 5543 5542 5540 5538 5536 5534 5531 5529 5526 5524 5521 5518 5515 5512 5510 5509 5508 5507 5506 5504 5503 5502 5500 5498 5496
5470 5469 5468 5467 5467 5467 5467 5468 5468 5469 5471 5473 5475 5477 5479 5481 5483 5485 5487 5490 5492 5495 5497 5499 5501 5503 5506 5508 5510 5512 5513 5515 5517 5518 5520 5521 5523 5524 5526 5528 5530 5531 5533 5534 5535 5536 5537 5538 5539 5540 5541 5541 5542 5542 5543 5543 5543 5543 5542 5542 5541 5540 5538 5536 5534 5532 5530 5528 5525 5523 5521 5518 5516 5513 5511 5508 5506 5505 5504 5503 5502 5500 5499 5497 5496
5475 5473 5473 5472 5472 5472 5472 5472 5473 5474 5475 5476 5478 5480 5481 5483 5485 5486 5488 5491 5493 5495 5497 5499 5501 5503 5506 5507 5509 5510 5512 5514 5515 5517 5518 5520 5521 5523 5525 5527 5529 5530 5531 5532 5533 5534 5535 5536 5537 5537 5538 5539 5539 5540 5540 5540 5540 5540 5540 5539 5538 5537 5536 5535 5533 5531 5529 5527 5524 5522 5520 5518 5516 5514 5511 5509 5506 5504 5502 5501 5500 5499 5498 5496 5495
5478 5478 5477 5476 5476 5476 5476 5477 5477 5478 5479 5480 5481 5482 5484 5485 5486 5488 5490 5492 5494 5496 5498 5500 5501 5503 5505 5506 5508 5509 5511 5512 5514 5515 5517 5519 5521 5523 5524 5526 5527 5528 5529 5530 5531 5532 5533 5534 5534 5535 5536 5536 5537 5537 5537 5537 5537 5537 5537 5536 5536 5535 5534 5533 5531 5530 5528 5526 5524 5521 5519 5518 5516 5513 5511 5509 5506 5503 5501 5499 5498 5497 5496 5495 5493
5481 5481 5480 5480 5479 5479 5480 5480 5480 5481 5482 5483 5484 5485 5486 5487 5488 5490 5491 5493 5495 5496 5498 5500 5501 5502 5504 5505 5506 5508 5509 5511 5512 5514 5516 5518 5520 5522 5523 5524 5525 5526 5527 5528 5529 5530 5531 5532 5532 5533 5533 5534 5534 5534 5534 5535 5535 5534 5534 5534 5533 5532 5531 5530 5529 5528 5527 5525 5523 5521 5519 5517 5515 5513 5511 5509 5506 5504 5501 5498 5496 5495 5493 5493 5492